Regional Weather Roundup
Issued by NWS

Home | Current Version | Previous Version | Text Only | Print | Product List | Glossary On
Versions: 1 2 3 4 5 6 7 8 9 10 11 12 13 14 15 16 17 18 19 20 21 22 23 24 25 26 27 28 29 30 31 32 33 34 35 36 37 38 39 40 41 42 43 44 45 46 47 48 49 50
000
ASUS42 KTBW 122316
RWRFL
FLORIDA REGIONAL WEATHER ROUNDUP
NATIONAL WEATHER SERVICE TAMPA BAY RUSKIN FL
600 PM EST TUE DEC 12 2017

NOTE: "FAIR" INDICATES FEW OR NO CLOUDS BELOW 12,000 FEET WITH NO
SIGNIFICANT WEATHER AND/OR OBSTRUCTIONS TO VISIBILITY.

FLZ001>010-012>015-112-114-115-130000-
PANHANDLE FLORIDA

CITY           SKY/WX    TMP DP  RH WIND       PRES   REMARKS
PENSACOLA      CLEAR     55  35  47 NW9       30.04S
PENSACOLA NAS  CLEAR     54  35  48 NW6       30.05R
MILTON NAS     CLEAR     51  35  54 NW3       30.04
CRESTVIEW      CLEAR     53  33  46 N5        30.04R
DUKE FIELD     CLEAR     54  34  46 NW8       30.02R
VALPARAISO     CLEAR     55  33  43 NW6       30.02R
MARY ESTHER    CLEAR     56  33  42 N8        30.02R
PANAMA CITY    FAIR      52  35  52 NW6       30.01R
TYNDALL AFB    CLEAR     56  34  43 NW9       30.01R
APALACHICOLA   CLEAR     56  35  45 NW6       29.99R

STATION/POSITION SKY/WX   TEMP    WIND        PRES    WAVE   SWELL
                          AIR SEA DIR/SP/G            HT/PER HT/PER
                          (F)     (DEG/KT/KT) (MB)    (FT/S) (FT/S)
29.2N   88.2W              61 73  320/ 16/ 19 1019.2
28.8N   86.0W              62 74  320/ 21/ 23 1016.3R   7/ 8
PANAMA CITY BEAC           58 63  310/  9/ 12 1016.9R
TOWER C                    60     340/ 19/ 20 1015.7R

$$
FLZ011-016>038-118-127-128-134-139-239-130000-
NORTH FLORIDA

CITY           SKY/WX    TMP DP  RH WIND       PRES   REMARKS
MARIANNA       CLEAR     55  33  43 NW7       30.00R
TALLAHASSEE    CLEAR     56  33  42 NW9       29.98R
PERRY          CLEAR     55  32  41 NW7       29.97R
LIVE OAK       CLEAR     55  32  41 W3        29.95R
CROSS CITY     CLEAR     56  38  49 W7        29.99R
LAKE CITY      FAIR      55  32  41 NW9       29.93R
GAINESVILLE    CLEAR     59  37  44 NW9       29.94R
WILLISTON      CLEAR     61  37  41 W7        29.93R
PALATKA        FAIR      61  37  41 NW10      29.90R
MAYPORT NAS    CLEAR     60  39  45 W10G20    29.87R
JACKSONVILLE   CLEAR     59  38  45 NW10      29.89R
JAX NAS        CLEAR     62  37  39 W8G20     29.89R
JAX CECIL      CLEAR     59  37  44 NW12      29.90R
ST AUGUSTINE   CLEAR     62  38  40 W13G18    29.89R
PALM COAST     CLEAR     64  41  42 W13G20    29.87R

STATION/POSITION SKY/WX   TEMP    WIND        PRES    WAVE   SWELL
                          AIR SEA DIR/SP/G            HT/PER HT/PER
                          (F)     (DEG/KT/KT) (MB)    (FT/S) (FT/S)
SHELL POINT      NOT AVBL
KEATON BEACH               57     310/  8/ 11 1014.1R
CEDAR KEY                  59     320/  8/ 13 1014.5R
FERNANDINA                 59 58  280/ 12/ 15 1012.7R
30.7N   81.3W                 62                N/A     3/ 4
MAYPORT                    60 61  300/ 12/ 18 1011.9R
31.4N   80.9W              59 62  280/ 21/ 25 1010.0R   4/ 4
ST AUGUSTINE               64 62  300/ 10/ 14 1012.2R

$$
FLZ040-043>046-052-053-057-058-063-144-130000-
INTERIOR CENTRAL FLORIDA

CITY           SKY/WX    TMP DP  RH WIND       PRES   REMARKS
OCALA          CLEAR     61  43  51 W7        29.93R
LEESBURG       CLEAR     65  49  56 W16G24    29.92R
SANFORD        CLEAR     67  49  52 W16G22    29.88R
ORLANDO EXEC   CLEAR     68  50  52 W14       29.88S
ORLANDO INTL   CLEAR     67  49  52 W14G25    29.90R
KISSIMMEE      CLEAR     67  50  54 W12       29.91R
WINTER HAVEN   CLEAR     67  50  54 W13       29.92S
LAKELAND       PTCLDY    66  48  52 W9        29.92F
BARTOW         FAIR      64  50  59 W9        29.92F
SEBRING        FAIR      68  49  52 W9        29.93S

$$
FLZ041-047-054-059-064-141-147-130000-
EAST CENTRAL FLORIDA

CITY           SKY/WX    TMP DP  RH WIND       PRES   REMARKS
ORMOND BEACH   CLEAR     64  48  55 W14       29.87R
DAYTONA BEACH  CLEAR     65  49  56 W17G25    29.87R
DELAND         CLEAR     64  50  59 W10       29.88R
NEW SMYRNA BEA CLEAR     66  46  48 W13G24    29.87R
JFK SPACE CTR  CLEAR     66  51  59 W12       29.86S
TITUSVILLE     CLEAR     70  46  43 W13       29.88S
CAPE CANAVERAL CLEAR     66  48  52 W10       29.87R
PATRICK AFB    CLEAR     67  50  55 W15       29.88S
MELBOURNE      CLEAR     67  50  54 W9        29.89S
VERO BEACH     CLEAR     66  50  56 W12       29.92R
FT PIERCE      CLEAR     64  51  62 W8        29.92R
STUART         PTCLDY    70  55  60 W7        29.94S

STATION/POSITION SKY/WX   TEMP    WIND        PRES    WAVE   SWELL
                          AIR SEA DIR/SP/G            HT/PER HT/PER
                          (F)     (DEG/KT/KT) (MB)    (FT/S) (FT/S)
28.5N   80.2W              72     250/ 19/ 25 1011.2S   4/ 4   2/ 9
TRIDENT PIER               69 70  240/ 11/ 15 1013.1S
28.4N   80.5W                 69                N/A     2/ 2
27.5N   80.2W                 71                N/A     2/ 3

$$
FLZ050-056-061-142-242-148-248-149-249-151-251-155-255-
160-260-130000-
WEST CENTRAL FLORIDA

CITY           SKY/WX    TMP DP  RH WIND       PRES   REMARKS
CRYSTAL RIVER  FAIR      59  50  72 W7        29.94R
INVERNESS      FAIR      59  48  67 NW5       29.94R
BROOKSVILLE    CLEAR     62  49  62 NW15      29.94R
CLEARWATER AIR FAIR      63  55  77 NW10      29.94S
ST PETE CLEARW PTCLDY    65  59  81 W9G16     29.94S
TAMPA INTL     PTCLDY    66  57  72 W12       29.94R
TAMPA EXEC     MOCLDY    64  55  72 W6        29.94S
PLANT CITY     CLEAR     68  55  64 W10G16    29.95R
MACDILL AFB    CLEAR     65  59  81 W3        29.94R
PETER O KNIGHT   N/A     64  59  82 W8        29.94S
ST PETERSBURG  CLOUDY    67  59  75 NW10G17   29.93R
SARASOTA       PTCLDY    68  55  63 NW16      29.94S
VENICE         NOT AVBL

STATION/POSITION SKY/WX   TEMP    WIND        PRES    WAVE   SWELL
                          AIR SEA DIR/SP/G            HT/PER HT/PER
                          (F)     (DEG/KT/KT) (MB)    (FT/S) (FT/S)
27.3N   84.2W                 75                N/A     8/ 7
CLEARWATER BEACH           66 63  290/ 20/ 24 1014.1S
MIDDLE TAMPA BAY           67     330/ 18/ 22 1014.0R
VENICE                     71 68  290/ 21/ 23 1014.4R

$$
FLZ066-069-070-075>078-162-262-165-265-130000-
SOUTHWEST FLORIDA AND KEYS

CITY           SKY/WX    TMP DP  RH WIND       PRES   REMARKS
PUNTA GORDA    CLEAR     67  53  61 W7        29.97S
FT MYERS       CLEAR     69  56  62 W9        29.96S
SOUTHWEST INTL CLEAR     68  56  65 W5        29.97S
NAPLES         CLEAR     70  57  63 W12       29.97F
MARCO ISLAND   CLEAR     69  57  65 W10       29.99S
IMMOKALEE      FAIR      66  55  68 W5        29.97F
MARATHON       CLEAR     68  56  65 CALM      30.00S
KEY WEST NAS   PTCLDY    70  61  73 W12       30.02R
KEY WEST INTL  PTCLDY    71  58  63 W10       30.02R

STATION/POSITION SKY/WX   TEMP    WIND        PRES    WAVE   SWELL
                          AIR SEA DIR/SP/G            HT/PER HT/PER
                          (F)     (DEG/KT/KT) (MB)    (FT/S) (FT/S)
NAPLES                        69  290/ 16/ 18 1014.8F
DRY TORTUGAS               73     320/ 18/ 20 1016.4R
SAND KEY                   72                 1017.1R
MOLASSES REEF              68 76  260/ 13/ 14 1016.2R

$$
FLZ067-068-071>074-168-172>174-130000-
SOUTHEAST FLORIDA

CITY           SKY/WX    TMP DP  RH WIND       PRES   REMARKS
W PALM BEACH   PTCLDY    68  55  63 W10       29.95S
BOCA RATON     CLEAR     72  54  53 W13       29.96R
FT LAUDER-EXEC PTCLDY    68  56  65 W10       29.97R
FT LAUDERDALE  PTCLDY    68  57  68 W10       29.96S
POMPANO BEACH  PTCLDY    70  55  59 W9        29.96S
PEMBROKE PINES CLEAR     69  55  60 W10       29.99R
OPA LOCKA      CLEAR     67  56  67 W10       29.98S
MIAMI          PTCLDY    68  55  63 W8        29.98S
WEST KENDALL   PTCLDY    64  54  69 W7        29.99S
HOMESTEAD      CLOUDY    68  58  70 W7        29.98S

STATION/POSITION SKY/WX   TEMP    WIND        PRES    WAVE   SWELL
                          AIR SEA DIR/SP/G            HT/PER HT/PER
                          (F)     (DEG/KT/KT) (MB)    (FT/S) (FT/S)
PORT EVERGLADES            70     260/  9/ 15 1014.8R
VIRGINIA KEY               69 72  240/ 12/ 15 1014.8S
LAKE WORTH                 69 77  260/  7/ 14 1015.0R
FOWEY ROCKS                69 77  260/ 17/ 18 1015.9F
SETTLEMENT POINT           71     260/ 16/ 21 1014.3S

$$




USA.gov is the U.S. government's official web portal to all federal, state and local government web resources and services.